User: anonymous   Login
Location: Unnamed
(23.5608°S, 46.6833°W)
Time: 03:32:49
(UTC-03:00)
Language:

Cosmos 1633 Rocket - Orbit

View from above orbital plane
View from above orbital plane
View from above satellite
View from above satellite

Ground track
Ground track

The orbit data is extracted from the following two-line orbital elements,

1 15593U 85020B   23336.75110737  .00000949  00000-0  10778-3 0  9994
2 15593  82.5390 213.9640 0011887 156.5571 203.6190 14.85240045 73242
Epoch (UTC): 02 December 2023 18:01:35
Eccentricity: 0.0011887
inclination: 82.5390°
perigee height: 604 km
apogee height: 621 km
right ascension of ascending node: 213.9640°
argument of perigee: 156.5571°
revolutions per day: 14.85240045
mean anomaly at epoch: 203.6190°
orbit number at epoch: 7324

The dashed part of the orbit path shows where the satellite is in the earth's shadow,  

DLR